Temp
-4 -6 -7 -8 -9 -9 -9 -9 -10 -10 -10 -10 -10 -10 -10 -10 -10 -9 -9 -9 -9 -9 -9 -9 -9 -9 -9 -10 -10 -10 -11 -11 -11 -11 -12 -13 -12 -13 -13 -14 -16 -16 -16
-5 -6 -7 -8 -9 -9 -10 -10 -10 -10 -9 -10 -10 -10 -10 -10 -10 -9 -9 -9 -9 -10 -9 -9 -9 -9 -10 -10 -10 -11 -11 -11 -11 -12 -13 -13 -13 -13 -14 -14 -15 -16 -17
-5 -6 -7 -8 -9 -10 -10 -10 -9 -9 -9 -9 -10 -9 -10 -10 -10 -9 -9 -9 -9 -10 -10 -9 -9 -10 -10 -10 -11 -11 -11 -11 -12 -12 -13 -13 -14 -14 -14 -14 -14 -14 -16
-6 -7 -8 -9 -10 -10 -10 -9 -10 -9 -9 -9 -9 -9 -9 -10 -10 -9 -10 -10 -10 -10 -9 -10 -10 -10 -10 -11 -12 -12 -12 -12 -13 -13 -13 -14 -14 -14 -14 -15 -15 -14 -15
-7 -8 -9 -9 -10 -10 -10 -9 -10 -9 -9 -9 -9 -9 -9 -10 -10 -9 -10 -9 -10 -10 -10 -10 -10 -10 -10 -11 -12 -12 -12 -13 -13 -14 -14 -14 -14 -14 -14 -14 -15 -15 -15
-8 -8 -9 -9 -9 -9 -9 -9 -9 -9 -9 -9 -9 -9 -10 -10 -10 -9 -9 -9 -10 -10 -10 -10 -10 -10 -10 -10 -12 -13 -13 -13 -14 -14 -15 -15 -14 -14 -14 -15 -15 -15 -15
-8 -9 -9 -9 -9 -9 -9 -9 -9 -9 -9 -9 -9 -9 -10 -9 -10 -10 -9 -9 -10 -10 -10 -10 -10 -10 -10 -11 -12 -13 -13 -13 -14 -14 -14 -15 -15 -15 -15 -15 -15 -15 -15
-7 -8 -7 -8 -9 -9 -9 -9 -9 -9 -9 -9 -9 -9 -9 -9 -9 -9 -9 -9 -10 -10 -10 -10 -10 -10 -11 -11 -12 -13 -13 -13 -14 -14 -15 -15 -15 -15 -15 -15 -15 -15 -15
-7 -7 -7 -8 -8 -9 -9 -9 -9 -9 -9 -9 -9 -9 -9 -9 -9 -9 -9 -9 -10 -10 -10 -10 -10 -10 -11 -11 -13 -14 -14 -14 -14 -14 -14 -15 -15 -15 -15 -15 -15 -15 -16
-7 -7 -7 -8 -8 -9 -9 -9 -9 -9 -9 -9 -9 -9 -9 -9 -9 -9 -9 -10 -10 -10 -10 -10 -10 -11 -11 -12 -13 -14 -14 -14 -15 -15 -15 -15 -15 -15 -15 -15 -15 -15 -15
-7 -7 -8 -8 -8 -9 -9 -9 -9 -9 -9 -9 -9 -9 -9 -9 -9 -9 -9 -10 -10 -10 -10 -10 -10 -10 -11 -12 -13 -15 -14 -15 -15 -15 -15 -16 -16 -16 -16 -16 -16 -16 -16
-7 -7 -8 -8 -8 -8 -9 -9 -10 -10 -9 -9 -9 -9 -9 -9 -9 -9 -9 -10 -10 -10 -10 -10 -10 -11 -12 -13 -13 -14 -15 -15 -15 -15 -15 -16 -16 -16 -17 -16 -16 -16 -16
-7 -7 -8 -8 -8 -8 -9 -10 -10 -10 -10 -9 -9 -9 -9 -9 -10 -9 -10 -10 -10 -10 -10 -10 -10 -11 -12 -12 -13 -14 -15 -15 -15 -15 -16 -16 -16 -17 -17 -17 -17 -17 -17
-7 -7 -8 -8 -7 -7 -8 -9 -9 -10 -10 -9 -9 -9 -9 -9 -9 -9 -10 -10 -10 -11 -10 -11 -11 -11 -12 -13 -14 -15 -15 -15 -15 -16 -16 -16 -17 -17 -17 -17 -17 -17 -17
-8 -8 -8 -8 -7 -8 -8 -9 -10 -10 -10 -10 -9 -9 -9 -9 -9 -10 -9 -10 -10 -10 -10 -11 -11 -11 -12 -13 -14 -15 -15 -15 -16 -16 -16 -16 -17 -18 -18 -18 -18 -18 -18
-7 -7 -8 -8 -8 -8 -9 -9 -10 -10 -10 -10 -10 -10 -10 -9 -9 -9 -10 -10 -10 -10 -11 -11 -11 -12 -13 -14 -15 -16 -16 -16 -16 -16 -17 -17 -17 -18 -18 -18 -18 -18 -18
-7 -7 -7 -8 -9 -9 -9 -10 -10 -10 -10 -10 -10 -10 -10 -10 -9 -9 -10 -10 -10 -11 -11 -11 -12 -12 -13 -14 -15 -16 -16 -16 -16 -16 -17 -17 -17 -18 -18 -18 -18 -19 -19
-7 -7 -8 -9 -9 -9 -10 -10 -10 -10 -10 -10 -10 -10 -10 -10 -10 -10 -10 -10 -10 -11 -11 -11 -12 -13 -14 -15 -16 -16 -16 -16 -16 -16 -16 -17 -17 -18 -18 -18 -19 -19 -19
-8 -8 -8 -9 -9 -10 -10 -10 -10 -10 -10 -10 -10 -11 -11 -10 -10 -10 -10 -10 -11 -11 -11 -12 -12 -13 -14 -15 -15 -15 -15 -16 -16 -16 -16 -17 -17 -18 -18 -19 -19 -19 -19
-8 -9 -9 -9 -9 -10 -10 -10 -10 -11 -10 -10 -11 -11 -11 -10 -10 -10 -10 -10 -11 -11 -12 -12 -12 -14 -15 -15 -15 -15 -15 -16 -16 -16 -16 -17 -17 -18 -18 -19 -19 -19 -20
-9 -9 -9 -10 -10 -10 -10 -10 -11 -11 -11 -11 -11 -11 -11 -10 -10 -10 -10 -10 -11 -12 -12 -12 -13 -14 -15 -15 -15 -15 -15 -16 -16 -16 -16 -17 -17 -18 -18 -19 -19 -20 -20
-9 -9 -9 -10 -10 -10 -10 -11 -11 -11 -11 -11 -11 -11 -11 -10 -10 -11 -11 -11 -11 -12 -12 -12 -13 -15 -15 -15 -15 -15 -16 -16 -17 -16 -16 -17 -17 -18 -19 -20 -20 -20 -20
-10 -10 -10 -10 -10 -10 -10 -11 -11 -11 -11 -11 -11 -11 -11 -11 -11 -11 -11 -11 -12 -12 -12 -12 -14 -15 -15 -15 -15 -16 -16 -16 -16 -17 -17 -17 -18 -19 -20 -20 -20 -21 -21
-10 -10 -10 -10 -10 -10 -11 -11 -11 -11 -11 -11 -11 -11 -11 -11 -11 -11 -12 -12 -12 -13 -13 -13 -14 -15 -15 -15 -15 -16 -16 -16 -16 -17 -17 -18 -18 -19 -20 -20 -20 -21 -21
-10 -10 -10 -11 -11 -11 -11 -11 -11 -11 -11 -11 -11 -11 -11 -11 -11 -11 -12 -12 -13 -13 -13 -14 -15 -15 -15 -15 -15 -16 -16 -16 -17 -17 -18 -18 -19 -20 -20 -20 -20 -21 -21
-10 -11 -11 -11 -11 -11 -11 -11 -11 -11 -11 -11 -11 -11 -11 -11 -12 -12 -12 -13 -13 -13 -13 -14 -15 -15 -15 -15 -16 -16 -16 -17 -17 -18 -18 -19 -20 -20 -20 -21 -21 -21 -21
Height
5936 5937 5937 5938 5938 5937 5937 5936 5934 5931 5929 5926 5922 5918 5913 5908 5902 5897 5891 5885 5879 5871 5865 5858 5850 5843 5836 5828 5820 5811 5802 5792 5781 5769 5760 5754 5746 5738 5729 5717 5709 5700 5694
5935 5936 5936 5936 5936 5936 5936 5935 5932 5930 5927 5924 5920 5916 5911 5905 5898 5893 5887 5880 5873 5866 5859 5852 5845 5838 5830 5822 5813 5804 5795 5786 5776 5765 5757 5749 5741 5733 5725 5717 5706 5698 5693
5934 5934 5935 5935 5935 5935 5934 5933 5931 5928 5925 5921 5917 5913 5908 5901 5895 5889 5883 5876 5869 5862 5854 5846 5839 5832 5824 5815 5806 5798 5790 5780 5771 5761 5753 5744 5736 5729 5719 5709 5703 5697 5690
5932 5932 5932 5933 5933 5933 5932 5930 5928 5925 5922 5918 5914 5910 5904 5897 5891 5885 5879 5872 5865 5858 5850 5843 5836 5828 5819 5809 5801 5793 5784 5775 5766 5758 5749 5741 5733 5725 5717 5709 5698 5691 5685
5930 5930 5931 5931 5931 5930 5928 5926 5924 5921 5919 5915 5910 5905 5900 5894 5887 5881 5874 5867 5861 5854 5847 5840 5832 5824 5815 5805 5796 5788 5779 5770 5762 5755 5747 5739 5732 5725 5717 5709 5700 5691 5687
5927 5928 5928 5928 5928 5926 5925 5923 5920 5917 5914 5910 5906 5901 5895 5889 5883 5875 5869 5863 5856 5849 5842 5835 5827 5818 5810 5801 5792 5783 5775 5766 5759 5752 5746 5738 5730 5723 5715 5709 5701 5693 5687
5926 5926 5925 5925 5925 5923 5921 5919 5917 5913 5910 5906 5901 5896 5890 5884 5877 5871 5864 5858 5851 5845 5837 5828 5820 5811 5802 5793 5784 5776 5769 5763 5755 5747 5740 5735 5727 5720 5714 5706 5698 5690 5683
5923 5922 5922 5921 5921 5919 5917 5914 5912 5909 5905 5901 5896 5890 5885 5879 5872 5865 5859 5853 5847 5839 5831 5823 5814 5805 5795 5786 5776 5769 5763 5756 5748 5742 5736 5730 5723 5716 5710 5703 5697 5688 5680
5920 5920 5918 5916 5915 5914 5912 5910 5907 5904 5899 5895 5890 5884 5879 5873 5867 5860 5854 5848 5841 5834 5826 5817 5808 5797 5788 5780 5770 5763 5756 5749 5743 5737 5730 5723 5717 5711 5704 5697 5689 5684 5677
5918 5916 5914 5911 5910 5908 5907 5905 5902 5899 5895 5889 5883 5878 5872 5867 5861 5854 5849 5843 5835 5828 5820 5811 5802 5792 5782 5773 5764 5757 5750 5744 5737 5730 5724 5718 5711 5704 5697 5690 5683 5676 5670
5912 5910 5908 5906 5904 5903 5902 5900 5897 5893 5888 5882 5876 5870 5866 5861 5854 5849 5843 5837 5830 5822 5814 5806 5796 5786 5775 5766 5758 5752 5746 5739 5732 5727 5720 5713 5706 5698 5691 5683 5676 5670 5663
5903 5903 5901 5900 5898 5896 5895 5893 5891 5887 5881 5875 5869 5864 5859 5854 5848 5842 5836 5830 5823 5815 5807 5798 5788 5778 5768 5759 5752 5746 5740 5734 5729 5722 5715 5708 5700 5693 5686 5678 5670 5661 5654
5896 5895 5895 5893 5892 5890 5888 5886 5884 5880 5874 5868 5863 5858 5853 5847 5841 5835 5830 5823 5816 5808 5800 5791 5782 5771 5762 5753 5747 5741 5735 5728 5721 5715 5708 5701 5695 5689 5681 5673 5665 5657 5648
5889 5889 5887 5885 5884 5882 5880 5878 5875 5872 5868 5862 5857 5851 5845 5840 5835 5830 5824 5817 5809 5801 5793 5784 5775 5764 5755 5748 5741 5735 5729 5723 5715 5709 5703 5697 5688 5681 5674 5668 5661 5655 5650
5882 5881 5880 5878 5877 5875 5872 5870 5867 5865 5861 5855 5850 5845 5839 5835 5829 5823 5817 5811 5803 5794 5786 5777 5767 5757 5749 5741 5735 5729 5723 5717 5711 5704 5697 5689 5682 5675 5667 5660 5653 5647 5641
5873 5872 5870 5869 5868 5867 5865 5863 5861 5857 5853 5849 5844 5839 5834 5829 5823 5817 5811 5804 5795 5787 5779 5769 5759 5750 5742 5735 5728 5723 5717 5712 5705 5697 5690 5683 5676 5669 5661 5654 5646 5640 5634
5864 5863 5861 5860 5859 5859 5857 5856 5853 5849 5846 5842 5837 5832 5828 5823 5816 5810 5804 5797 5788 5780 5771 5762 5752 5744 5736 5729 5724 5718 5713 5706 5699 5691 5684 5676 5668 5661 5654 5647 5640 5634 5628
5854 5852 5851 5851 5851 5851 5849 5848 5845 5842 5839 5836 5831 5827 5822 5816 5810 5804 5798 5789 5780 5772 5763 5755 5746 5738 5730 5724 5718 5713 5707 5700 5692 5684 5676 5669 5661 5653 5647 5639 5632 5627 5622
5844 5844 5843 5842 5842 5843 5842 5839 5837 5834 5831 5828 5824 5820 5815 5809 5803 5796 5790 5781 5772 5764 5756 5747 5740 5732 5724 5719 5714 5708 5702 5694 5686 5678 5670 5662 5654 5647 5639 5632 5625 5619 5614
5833 5834 5833 5834 5835 5835 5833 5831 5829 5826 5823 5821 5817 5812 5807 5802 5795 5789 5782 5773 5764 5757 5749 5742 5734 5726 5720 5715 5709 5702 5695 5687 5679 5672 5663 5655 5648 5640 5633 5626 5619 5612 5607
5823 5825 5826 5826 5827 5826 5825 5823 5821 5818 5815 5813 5809 5804 5800 5794 5787 5780 5773 5765 5757 5750 5744 5736 5728 5721 5715 5710 5704 5697 5690 5683 5674 5665 5657 5650 5642 5634 5626 5619 5613 5606 5601
5814 5815 5817 5817 5818 5817 5816 5815 5812 5809 5807 5805 5800 5796 5791 5785 5778 5771 5765 5758 5750 5745 5739 5731 5722 5716 5710 5705 5699 5692 5683 5675 5667 5659 5652 5644 5637 5628 5621 5615 5608 5602 5597
5806 5806 5807 5808 5808 5808 5807 5805 5803 5800 5798 5795 5791 5786 5782 5776 5770 5764 5758 5752 5745 5739 5733 5725 5716 5711 5705 5699 5691 5684 5678 5671 5663 5654 5646 5640 5632 5624 5618 5612 5605 5598 5593
5797 5797 5798 5799 5799 5798 5797 5795 5792 5791 5788 5785 5780 5776 5772 5768 5762 5756 5750 5745 5738 5732 5725 5718 5711 5706 5699 5694 5688 5680 5674 5666 5658 5650 5642 5636 5629 5622 5615 5608 5601 5595 5589
5785 5786 5787 5788 5788 5787 5785 5783 5781 5780 5776 5773 5770 5767 5763 5759 5753 5748 5742 5736 5730 5723 5718 5712 5705 5700 5695 5690 5683 5676 5670 5662 5655 5648 5640 5633 5627 5620 5612 5604 5596 5589 5583
5773 5774 5775 5776 5776 5775 5773 5772 5770 5768 5765 5763 5760 5756 5753 5749 5745 5739 5733 5727 5721 5717 5711 5705 5700 5697 5691 5686 5679 5672 5664 5657 5650 5645 5637 5630 5624 5616 5608 5599 5591 5584 5577
Wind_Speed
8 8 7 8 9 10 13 15 19 23 26 28 31 34 40 43 46 47 43 42 44 47 43 44 41 40 40 42 45 48 48 50 52 50 46 40 36 35 36 35 40 30 27
7 8 7 8 10 11 14 17 21 25 28 29 30 35 40 43 46 48 44 43 45 50 50 46 41 38 42 43 47 48 47 48 49 46 43 40 37 37 34 37 41 39 39
7 7 7 8 10 12 14 16 19 24 28 30 32 36 41 43 47 49 44 43 48 52 56 46 38 42 46 46 46 47 46 47 47 45 42 41 39 37 39 41 40 37 34
8 9 8 10 12 13 15 17 20 24 28 31 34 38 41 43 48 50 42 43 47 54 50 43 39 42 48 47 46 47 44 46 46 42 42 41 40 38 36 35 39 40 40
8 10 9 11 13 17 18 20 23 25 28 32 36 39 42 44 47 48 42 43 49 52 51 44 45 49 50 49 45 45 42 42 43 38 38 39 39 38 36 34 34 36 36
12 13 14 14 18 19 22 25 27 27 31 32 36 41 43 45 47 45 43 45 48 51 53 52 54 57 57 53 46 42 39 39 40 38 39 37 36 38 41 38 35 34 33
15 17 20 20 20 23 24 26 27 30 33 33 39 42 43 45 45 42 43 46 49 53 54 55 55 56 56 57 47 42 37 38 39 39 39 38 37 38 39 39 39 39 38
17 20 24 26 23 26 28 26 28 33 34 35 40 42 44 43 42 42 45 47 52 54 55 57 58 58 55 54 47 41 38 38 39 39 38 38 37 38 39 38 36 38 39
17 19 23 27 27 29 28 29 31 35 34 40 42 44 43 41 42 43 46 48 51 53 56 57 60 58 55 53 47 40 39 38 38 39 40 40 39 39 38 39 40 38 38
17 19 21 24 28 29 28 31 33 34 38 41 43 43 41 41 42 45 46 49 51 55 57 58 61 60 57 50 44 38 38 37 38 38 39 40 40 39 40 41 41 41 38
18 21 21 23 24 27 30 30 33 35 39 42 42 41 39 40 41 44 47 48 51 55 58 60 61 61 56 48 42 35 36 36 37 37 39 40 40 40 40 40 41 41 40
26 30 24 27 27 25 28 31 32 36 37 40 38 38 38 39 42 46 48 49 53 56 60 61 63 59 51 46 40 35 35 36 37 38 40 42 41 38 38 39 41 43 43
32 34 33 31 31 26 26 27 32 34 37 37 35 35 36 38 43 47 49 50 53 57 61 61 62 55 49 44 37 35 35 36 37 39 40 42 42 39 37 38 40 41 43
35 36 39 38 30 28 26 27 27 33 35 35 34 35 37 38 43 46 48 51 55 57 60 61 60 54 48 41 36 35 35 36 38 40 42 44 44 41 39 39 38 37 37
37 42 41 34 28 28 24 25 27 31 34 34 34 37 40 41 44 47 50 52 55 57 60 60 57 51 46 44 41 37 37 38 41 41 42 44 44 41 40 40 39 38 38
44 40 34 32 29 24 24 24 28 32 34 35 37 40 43 44 45 48 50 53 55 59 61 58 53 46 44 41 39 39 35 39 41 42 43 43 43 43 42 41 40 39 38
43 38 39 31 24 25 25 25 30 34 34 37 40 42 45 45 47 50 52 55 58 60 59 55 51 45 43 40 37 32 38 40 42 44 45 44 44 44 41 40 38 36 36
40 39 34 28 26 25 25 28 32 36 37 40 41 44 48 48 49 52 53 56 58 59 56 52 47 44 40 35 31 37 39 42 43 44 45 45 45 43 41 39 37 35 34
41 39 33 29 28 27 28 31 35 39 42 43 45 48 51 52 52 53 54 57 58 55 50 48 45 42 35 31 35 39 42 43 44 44 46 47 49 46 42 39 37 35 33
41 33 30 30 30 30 31 34 39 43 45 45 50 51 54 55 54 54 54 57 57 52 49 45 43 39 31 34 38 41 42 41 44 46 47 49 47 44 43 40 37 34 32
38 34 33 33 32 32 36 39 42 46 48 50 52 53 56 56 55 54 54 57 54 50 46 44 42 34 32 36 39 41 42 43 46 48 49 46 44 45 45 41 36 33 31
36 34 32 32 34 38 40 43 46 49 51 53 55 56 59 55 55 55 55 56 51 49 44 43 40 33 34 38 40 41 40 43 47 49 46 45 46 45 41 37 33 32 30
32 33 32 34 36 39 42 46 49 52 53 56 57 59 59 55 55 55 55 52 50 48 44 42 35 32 36 39 39 38 41 45 48 45 43 44 43 39 36 34 32 31 31
37 36 36 36 37 40 46 50 53 54 56 57 59 61 59 55 54 53 52 50 48 44 42 39 33 34 37 39 39 39 43 46 45 43 42 40 38 35 33 33 34 35 35
39 39 37 37 40 44 49 53 55 56 57 60 61 61 59 55 53 53 52 47 45 42 39 35 32 35 38 39 38 39 43 44 43 41 39 36 36 36 37 38 39 39 37
40 39 39 40 44 49 54 56 56 58 61 63 62 61 59 56 51 50 46 45 43 39 35 33 32 36 38 39 38 40 41 41 39 38 36 35 37 39 40 41 41 41 40
Wind_Direction
23 21 20 28 40 32 32 20 12 5 2 360 356 350 350 349 352 353 350 353 355 355 351 345 341 341 345 345 341 337 337 337 341 348 345 347 345 342 343 353 359 338 329
11 7 5 18 25 27 24 14 4 357 354 351 347 347 343 343 347 348 344 349 352 351 346 342 343 345 346 344 343 338 336 337 343 350 346 344 350 350 351 353 358 352 352
360 353 355 17 17 3 1 356 347 346 346 343 343 343 341 341 343 344 340 346 348 346 347 348 345 343 343 343 339 336 334 338 345 349 348 345 344 345 346 347 350 353 351
353 356 357 353 345 345 342 335 335 334 337 338 338 338 337 339 340 339 338 344 345 348 349 349 345 342 345 342 337 334 334 340 345 350 353 353 347 346 346 347 349 350 354
346 346 340 326 326 323 328 325 326 326 326 331 333 333 335 337 336 334 335 340 345 346 345 346 348 344 344 344 337 332 333 340 345 347 351 353 351 349 348 347 349 350 355
330 329 320 318 313 314 316 314 316 319 319 325 328 329 333 333 332 330 332 338 341 341 343 340 337 342 343 344 336 332 332 339 341 340 340 341 346 348 349 352 350 348 353
302 302 300 303 311 305 305 303 311 317 317 321 325 327 328 328 327 327 332 335 336 339 338 339 339 342 342 339 334 331 329 331 335 339 340 339 338 338 340 342 347 346 345
306 293 298 299 295 296 298 298 309 313 314 321 323 323 325 326 323 326 328 331 334 336 336 336 337 339 340 337 332 328 327 329 333 336 339 338 335 334 333 333 336 341 341
329 320 306 304 292 293 294 297 309 311 314 320 319 320 322 322 320 323 327 330 334 334 336 338 339 339 340 336 330 326 324 327 329 333 336 337 336 335 333 331 334 337 336
328 323 316 311 298 294 288 298 305 308 311 316 316 317 319 320 319 320 324 330 332 333 333 333 338 339 338 331 329 322 324 327 332 333 334 336 334 335 336 334 333 333 333
317 328 321 313 306 288 286 296 302 305 312 311 315 314 316 318 319 322 326 329 330 331 333 334 337 338 337 331 326 319 322 326 330 332 334 335 336 336 336 334 332 331 334
316 322 322 327 310 296 288 295 299 306 311 313 313 315 318 319 324 327 328 328 327 329 330 333 337 337 334 329 325 318 320 326 331 332 333 338 337 335 334 333 331 331 332
314 315 319 317 315 299 292 293 303 313 310 314 318 321 323 326 327 327 329 327 327 328 330 333 336 336 335 330 325 319 320 326 330 332 333 335 336 335 333 332 330 331 331
306 310 311 312 310 302 293 295 309 312 312 319 323 327 328 327 325 328 327 326 327 327 330 334 335 336 335 332 322 318 321 325 328 331 333 333 335 333 331 330 328 326 326
301 304 302 300 300 298 292 305 307 313 313 321 326 329 330 327 327 327 326 326 325 326 330 333 334 336 336 334 327 321 320 323 329 333 331 331 330 330 329 327 326 325 324
296 298 293 294 296 290 292 297 302 311 315 323 330 333 331 329 327 326 326 326 325 328 332 335 337 337 335 329 325 325 322 328 330 330 330 328 329 328 327 326 325 323 323
293 291 291 288 284 282 289 297 304 310 317 325 329 329 330 327 325 324 326 327 328 329 333 335 336 336 333 329 327 322 327 330 331 330 329 331 330 328 327 325 323 323 323
284 290 285 277 276 282 292 300 305 310 316 320 326 327 329 328 324 325 326 329 329 331 334 334 334 334 331 328 324 327 332 331 330 332 332 333 331 331 330 327 324 323 323
285 287 277 271 274 284 292 297 303 307 311 316 321 324 327 328 324 324 327 328 329 331 332 331 332 330 330 327 328 332 332 331 333 334 335 334 333 334 333 329 327 325 324
285 282 271 271 274 282 289 294 298 301 306 312 317 320 325 326 324 324 326 328 328 329 329 331 330 329 328 328 332 332 331 332 334 335 335 335 335 335 334 332 330 328 327
275 275 267 267 274 280 286 289 293 298 303 309 314 317 321 323 323 322 326 327 328 327 329 329 330 327 325 329 331 333 332 334 336 336 337 336 334 334 333 334 333 333 331
266 269 266 269 275 280 283 286 291 294 300 306 309 313 319 322 321 322 325 327 325 327 328 329 326 323 325 329 334 333 332 335 338 338 336 336 333 335 338 338 337 336 335
258 264 265 269 274 278 282 284 286 291 298 301 306 311 317 319 318 320 325 327 325 327 328 327 322 321 326 330 332 331 334 338 337 338 337 336 335 339 340 339 339 339 335
260 264 269 272 275 276 277 279 284 290 294 299 303 309 314 316 316 319 325 325 324 325 325 322 318 320 327 330 332 333 336 337 337 338 339 338 340 341 341 341 339 336 331
264 266 268 268 271 273 274 278 283 288 292 296 302 307 311 314 314 319 321 321 321 321 321 319 316 321 328 330 333 335 336 336 338 338 339 342 342 340 339 337 335 333 330
268 270 267 266 268 270 273 278 283 286 290 296 301 304 308 309 313 317 320 319 316 318 321 314 315 323 330 332 334 335 335 338 340 338 342 345 342 340 339 338 336 332 327